Location: Ladrillo (historical)
(32.8195°N, 117.2231°W)
Time: 00:15:19
(UTC+00:00)

Courier 1B - Pass Details

Date: 12 March 2021
Orbit: 963 x 1209 km, 28.3° (Epoch: 15 April)

Event Time Altitude Azimuth Distance (km) Brightness Sun altitude
Rises 09:42:17 0° 210° (SSW) 3,976 - -51.7°
Reaches altitude 10° 09:46:09 10° 193° (SSW) 2,970 - -51.1°
Maximum altitude 09:50:46 18° 153° (SSE) 2,374 - -50.4°
Drops below altitude 10° 09:55:13 10° 113° (ESE) 2,855 - -49.7°
Exits shadow 09:57:03 - 102° (ESE) 3,282 10.5 -49.4°
Sets 09:58:49 0° 95° (E) 3,764 11.0 -49.1°
